Date String (YYYY-MM-DD hh:mm:ss) UTC,Instrument flags,Ambient pressure (hPa),Sample flow (lpm),Bypass flow (lpm),Sample temperature (°C),Ambient temperature (°C),ASC tube jacket temperature (°C),LED temperature (°C),Box temperature (°C),Sample RH (%),Span deviation,Mass concentration (μg/m³),Mass concentration (μg/m³),Mass concentration (μg/m³)
DateTimeUTC,F1_M11,P_M11,Q1_M11,Q2_M11,T1_M11,T2_M11,T3_M11,T4_M11,T5_M11,U1_M11,ZSPAN_M11,X0_M11,X2_M11,X1_M11
2022-05-02 21:00:00,,0825.1,5.00,0.00,23.5,22.8,00.0,32.6,25.3,22.1,0000.0,0002.18,0001.43,0001.25
2022-05-02 21:01:00,,0825.1,5.00,0.00,23.5,22.8,00.0,32.6,25.3,22.0,0000.0,0002.09,0001.40,0001.27
2022-05-02 21:02:00,,0825.2,5.00,0.00,23.5,22.8,00.0,32.6,25.3,21.8,0000.0,0001.98,0001.37,0001.28
2022-05-02 21:03:00,,0825.2,5.01,0.00,23.5,22.8,00.0,32.6,25.3,21.6,0000.0,0001.98,0001.41,0001.30
2022-05-02 21:04:00,,0825.1,5.00,0.00,23.5,22.8,00.0,32.6,25.3,21.4,0000.0,0001.96,0001.41,0001.32
2022-05-02 21:05:00,,0825.1,4.99,0.00,23.5,22.8,00.0,32.6,25.3,21.3,0000.0,0002.02,0001.45,0001.34
2022-05-02 21:06:00,,0825.1,5.00,0.00,23.5,22.8,00.0,32.6,25.3,21.3,0000.0,0002.04,0001.47,0001.37
2022-05-02 21:07:00,,0825.1,5.01,0.00,23.5,22.8,00.0,32.5,25.3,21.4,0000.0,0002.06,0001.49,0001.40
2022-05-02 21:08:00,,0825.1,5.00,0.00,23.5,22.8,00.0,32.5,25.3,21.5,0000.0,0002.05,0001.50,0001.43
2022-05-02 21:09:00,,0825.1,5.00,0.00,23.5,22.8,00.0,32.5,25.2,21.4,0000.0,0002.12,0001.55,0001.47
2022-05-02 21:10:00,,0825.1,5.00,0.00,23.5,22.8,00.0,32.5,25.3,21.5,0000.0,0002.20,0001.59,0001.50
2022-05-02 21:11:00,,0825.1,5.00,0.00,23.5,22.8,00.0,32.5,25.3,21.6,0000.0,0002.26,0001.63,0001.53
2022-05-02 21:12:00,,0825.1,5.00,0.00,23.5,22.8,00.0,32.5,25.2,21.4,0000.0,0002.39,0001.67,0001.57
2022-05-02 21:13:00,,0825.1,5.01,0.00,23.5,22.8,00.0,32.5,25.2,21.3,0000.0,0002.51,0001.72,0001.60
2022-05-02 21:14:00,,0825.1,5.01,0.00,23.5,22.8,00.0,32.5,25.2,21.3,0000.0,0002.53,0001.74,0001.63
2022-05-02 21:15:00,,0825.1,5.00,0.00,23.4,22.7,00.0,32.5,25.2,21.4,0000.0,0002.54,0001.74,0001.64
2022-05-02 21:16:00,,0825.1,5.00,0.00,23.4,22.7,00.0,32.5,25.2,21.6,0000.0,0002.53,0001.75,0001.66
2022-05-02 21:17:00,,0825.1,4.99,0.00,23.4,22.7,00.0,32.5,25.2,21.5,0000.0,0002.57,0001.78,0001.67
2022-05-02 21:18:00,,0825.1,5.01,0.00,23.4,22.7,00.0,32.5,25.2,21.5,0000.0,0002.71,0001.82,0001.69
2022-05-02 21:19:00,,0825.0,5.01,0.00,23.4,22.8,00.0,32.5,25.2,21.5,0000.0,0003.33,0001.87,0001.71
2022-05-02 21:20:00,,0825.0,5.00,0.00,23.4,22.8,00.0,32.5,25.2,21.4,0000.0,0003.36,0001.89,0001.73
2022-05-02 21:21:00,,0825.0,5.00,0.00,23.4,22.8,00.0,32.5,25.3,21.4,0000.0,0003.37,0001.91,0001.75
2022-05-02 21:22:00,,0824.9,5.00,0.00,23.5,22.8,00.0,32.5,25.2,21.4,0000.0,0003.49,0001.96,0001.77
2022-05-02 21:23:00,,0824.9,5.00,0.00,23.5,22.8,00.0,32.5,25.2,21.2,0000.0,0003.51,0002.00,0001.78
2022-05-02 21:24:00,,0825.0,4.99,0.00,23.4,22.8,00.0,32.4,25.2,21.1,0000.0,0003.55,0002.03,0001.79
2022-05-02 21:25:00,,0824.9,5.00,0.00,23.4,22.8,00.0,32.4,25.2,21.1,0000.0,0003.60,0002.06,0001.80
2022-05-02 21:26:00,,0824.9,5.00,0.00,23.4,22.8,00.0,32.4,25.2,21.4,0000.0,0003.68,0002.09,0001.81
2022-05-02 21:27:00,,0824.9,5.00,0.00,23.4,22.7,00.0,32.4,25.2,21.5,0000.0,0003.76,0002.13,0001.82
2022-05-02 21:28:00,,0824.9,5.01,0.00,23.4,22.7,00.0,32.4,25.2,21.3,0000.0,0003.86,0002.15,0001.83
2022-05-02 21:29:00,,0824.9,4.99,0.00,23.4,22.7,00.0,32.4,25.1,21.5,0000.0,0003.82,0002.13,0001.82
2022-05-02 21:30:00,,0824.9,5.00,0.00,23.4,22.7,00.0,32.4,25.1,21.7,0000.0,0003.20,0002.12,0001.82
2022-05-02 21:31:00,,0824.9,4.99,0.00,23.4,22.7,00.0,32.4,25.1,21.7,0000.0,0003.16,0002.10,0001.81
2022-05-02 21:32:00,,0824.9,5.00,0.00,23.3,22.7,00.0,32.4,25.1,21.8,0000.0,0003.15,0002.09,0001.81
2022-05-02 21:33:00,,0824.9,5.02,0.00,23.4,22.6,00.0,32.4,25.1,21.9,0000.0,0003.07,0002.07,0001.81
2022-05-02 21:34:00,,0824.9,5.00,0.00,23.3,22.6,00.0,32.4,25.1,22.1,0000.0,0002.98,0002.03,0001.81
2022-05-02 21:35:00,,0824.9,5.00,0.00,23.3,22.6,00.0,32.4,25.1,22.1,0000.0,0002.99,0002.02,0001.80
2022-05-02 21:36:00,,0824.9,5.01,0.00,23.3,22.6,00.0,32.4,25.1,22.1,0000.0,0003.05,0002.02,0001.80
2022-05-02 21:37:00,,0824.9,5.01,0.00,23.3,22.6,00.0,32.3,25.1,22.2,0000.0,0003.74,0002.02,0001.82
2022-05-02 21:38:00,,0824.9,5.00,0.00,23.3,22.6,00.0,32.3,25.1,22.1,0000.0,0004.66,0002.01,0001.82
2022-05-02 21:39:00,,0824.9,5.00,0.00,23.3,22.6,00.0,32.3,25.1,22.0,0000.0,0004.55,0001.99,0001.84
2022-05-02 21:40:00,,0824.9,5.01,0.00,23.3,22.6,00.0,32.3,25.0,21.9,0000.0,0005.19,0002.01,0001.85
2022-05-02 21:41:00,,0824.9,5.00,0.00,23.3,22.6,00.0,32.3,25.1,22.0,0000.0,0005.40,0001.99,0001.86
2022-05-02 21:42:00,,0824.9,5.00,0.00,23.3,22.6,00.0,32.3,25.0,21.9,0000.0,0005.40,0002.00,0001.87
2022-05-02 21:43:00,,0824.9,5.00,0.00,23.3,22.6,00.0,32.3,25.0,21.8,0000.0,0005.42,0002.01,0001.88
2022-05-02 21:44:00,,0824.9,5.01,0.00,23.3,22.5,00.0,32.3,25.0,21.7,0000.0,0005.64,0002.02,0001.89
2022-05-02 21:45:00,,0824.9,4.99,0.00,23.3,22.6,00.0,32.3,25.0,21.8,0000.0,0006.20,0002.04,0001.90
2022-05-02 21:46:00,,0824.9,4.99,0.00,23.3,22.6,00.0,32.3,25.0,22.0,0000.0,0006.20,0002.03,0001.91
2022-05-02 21:47:00,,0824.8,5.01,0.00,23.2,22.6,00.0,32.3,25.0,22.1,0000.0,0006.20,0002.06,0001.91
2022-05-02 21:48:00,,0824.8,5.00,0.00,23.2,22.6,00.0,32.3,25.0,22.3,0000.0,0005.41,0002.08,0001.91
2022-05-02 21:49:00,,0824.7,5.01,0.00,23.2,22.6,00.0,32.3,25.0,22.2,0000.0,0004.61,0002.08,0001.92
2022-05-02 21:50:00,,0824.8,5.00,0.00,23.2,22.5,00.0,32.3,25.0,22.2,0000.0,0004.64,0002.08,0001.91
2022-05-02 21:51:00,,0824.7,4.99,0.00,23.2,22.5,00.0,32.3,25.0,21.8,0000.0,0004.08,0002.10,0001.91
2022-05-02 21:52:00,,0824.7,5.00,0.00,23.2,22.5,00.0,32.2,25.0,21.8,0000.0,0003.86,0002.11,0001.91
2022-05-02 21:53:00,,0824.7,5.00,0.00,23.2,22.5,00.0,32.2,25.0,21.9,0000.0,0003.91,0002.13,0001.92
2022-05-02 21:54:00,,0824.6,5.02,0.00,23.2,22.5,00.0,32.2,25.0,22.1,0000.0,0003.97,0002.16,0001.93
2022-05-02 21:55:00,,0824.6,5.00,0.00,23.2,22.5,00.0,32.2,25.0,22.1,0000.0,0003.84,0002.21,0001.95
2022-05-02 21:56:00,,0824.6,4.99,0.00,23.2,22.5,00.0,32.2,25.0,22.1,0000.0,0003.34,0002.21,0001.96
2022-05-02 21:57:00,,0824.6,5.00,0.00,23.2,22.5,00.0,32.2,25.0,22.0,0000.0,0003.73,0002.22,0001.98
2022-05-02 21:58:00,,0824.6,5.00,0.00,23.2,22.5,00.0,32.2,25.0,22.0,0000.0,0004.09,0002.21,0002.01
2022-05-02 21:59:00,,0824.6,5.00,0.00,23.2,22.5,00.0,32.2,25.0,22.1,0000.0,0004.08,0002.22,0002.02
